Weather History for Lamar, CO

Change the Weather History Date:

Thursday, December 27, 2012

  Actual Average Record
Temperature  
Mean Temperature 14 °F 28 °F  
Max Temperature 29 °F 43 °F 75 °F (1980)
Min Temperature -1 °F 12 °F -12 °F (1924)
Degree Days  
Heating Degree Days 51 37  
Month to date heating degree days 891 949  
Since 1 July heating degree days 1970 2165  
Cooling Degree Days 0 0  
Month to date cooling degree days 0 0  
Year to date cooling degree days 1626 1121  
Moisture  
Dew Point 10 °F    
Average Humidity 78    
Maximum Humidity 92    
Minimum Humidity 63    
Precipitation  
Precipitation 0.00 in 0.02 in 0.43 in (1979)
Month to date precipitation 0.07 0.35  
Year to date precipitation 6.13 15.15  
Sea Level Pressure  
Sea Level Pressure 29.85 in    
Wind  
Wind Speed 5 mph (NW)    
Max Wind Speed 12 mph    
Max Gust Speed 38 mph    
Visibility 7 miles    
Events      
T = Trace of Precipitation, MM = Missing Value Source: NWS Daily Summary

Daily Weather History Graph

Daily Weather History Graph

Search for Another Location

Airport:

Trip Planner

Search our weather history database for the weather conditions in past years. The results will help you decide how hot, cold, wet, or windy it might be!

Date:

Astronomy

Dec. 27, 2012 Rise Set
Actual Time 7:06 AM MST 4:38 PM MST
Civil Twilight 6:36 AM MST 5:07 PM MST
Nautical Twilight 6:03 AM MST 5:40 PM MST
Astronomical Twilight 5:31 AM MST 6:13 PM MST
Moon 4:22 PM MST (12/27) 6:19 AM MST (12/27)
Length of Visible Light 10h 31m
Length of Day
9h 32m
Full, 100% of the Moon is Illuminated
Dec 27
Full
Dec 28
Full
Jan 4
Last Quarter
Jan 11
New
Jan 18
First Quarter

Hourly Weather History & Observations

Time (MST) Temp. Windchill Dew Point Humidity Pressure Visibility Wind Dir Wind Speed Gust Speed Precip Events Conditions
12:53 AM -0.9 °F -15.3 °F -5.1 °F 83% 29.79 in 10.0 mi WNW 8.1 mph - N/A   Clear
1:27 AM 1.4 °F -9.9 °F -2.2 °F 85% 29.65 in 10.0 mi WNW 5.8 mph - N/A   Scattered Clouds
1:37 AM 3.2 °F -6.2 °F -0.4 °F 85% 29.64 in 10.0 mi WNW 4.6 mph - N/A   Mostly Cloudy
1:53 AM 5.0 °F - 1.0 °F 84% 29.79 in 10.0 mi Calm Calm - N/A   Overcast
2:10 AM 8.6 °F 2.0 °F 5.0 °F 85% 29.65 in 10.0 mi NW 3.5 mph - N/A   Overcast
2:53 AM 14.0 °F 3.9 °F 10.9 °F 88% 29.75 in 7.0 mi North 6.9 mph - N/A   Overcast
3:53 AM 15.1 °F 4.2 °F 12.0 °F 88% 29.75 in 5.0 mi North 8.1 mph - N/A   Overcast
4:49 AM 15.8 °F 5.1 °F 12.2 °F 86% 29.66 in 9.0 mi NNE 8.1 mph - N/A   Overcast
4:53 AM 15.1 °F 3.3 °F 12.0 °F 88% 29.78 in 9.0 mi North 9.2 mph - N/A   Overcast
5:23 AM 15.8 °F 7.2 °F 12.2 °F 86% 29.68 in 7.0 mi NNE 5.8 mph - N/A   Overcast
6:53 AM 15.1 °F - 12.0 °F 88% 29.84 in 8.0 mi Calm Calm - N/A   Overcast
7:53 AM 16.0 °F - 12.0 °F 84% 29.86 in 7.0 mi Calm Calm - N/A   Overcast
8:53 AM 16.0 °F 10.4 °F 12.9 °F 88% 29.89 in 7.0 mi West 3.5 mph - N/A   Mostly Cloudy
9:00 AM 15.8 °F 5.1 °F 12.2 °F 86% 29.76 in 7.0 mi West 8.1 mph - N/A   Partly Cloudy
9:53 AM 17.1 °F 6.6 °F 12.0 °F 81% 29.92 in 7.0 mi West 8.1 mph - N/A   Clear
10:53 AM 19.0 °F 9.0 °F 12.9 °F 77% 29.91 in 7.0 mi WNW 8.1 mph - N/A   Clear
11:53 AM 19.9 °F 11.1 °F 12.0 °F 71% 29.88 in 6.0 mi NNW 6.9 mph - N/A   Haze
12:53 PM 23.0 °F 15.8 °F 15.1 °F 72% 29.89 in 7.0 mi NW 5.8 mph - N/A   Clear
1:53 PM 24.1 °F 17.0 °F 16.0 °F 71% 29.87 in 7.0 mi West 5.8 mph - N/A   Clear
2:53 PM 28.9 °F - 17.1 °F 61% 29.85 in 7.0 mi North - - N/A   Clear
3:53 PM 25.0 °F - 16.0 °F 69% 29.87 in 7.0 mi North - - N/A   Clear
4:53 PM 19.0 °F 11.1 °F 12.9 °F 77% 29.90 in 7.0 mi NE 5.8 mph - N/A   Clear
5:53 PM 18.0 °F 9.8 °F 12.9 °F 81% 29.94 in 6.0 mi NE 5.8 mph - N/A   Haze
6:53 PM 15.1 °F - 10.9 °F 84% 29.98 in 5.0 mi Calm Calm - N/A   Clear
7:53 PM 15.1 °F - 10.9 °F 84% 30.01 in 7.0 mi Calm Calm - N/A   Partly Cloudy
8:53 PM 12.9 °F 5.2 °F 10.0 °F 88% 30.04 in 6.0 mi SSW 4.6 mph - N/A   Mostly Cloudy
9:53 PM 10.0 °F -0.9 °F 7.0 °F 87% 30.06 in 6.0 mi SSW 6.9 mph - N/A   Mostly Cloudy
10:53 PM 8.1 °F -4.3 °F 5.0 °F 87% 30.06 in 6.0 mi SSW 8.1 mph - N/A   Clear
11:53 PM 6.1 °F -5.6 °F 3.0 °F 87% 30.08 in 6.0 mi SSW 6.9 mph - N/A   Partly Cloudy